Regional Weather Roundup
Issued by NWS

Home | Current Version | Previous Version | Graphics & Text | Print | Product List | Glossary On
Versions: 1 2 3 4 5 6 7 8 9 10 11 12 13 14 15 16 17 18 19 20 21 22 23 24 25 26 27 28 29 30 31 32 33 34 35 36 37 38 39 40 41 42 43 44 45 46 47 48 49 50
000
ASUS44 KMEG 031710
RWRTN
TENNESSEE HOURLY STATE WEATHER ROUNDUP
NATIONAL WEATHER SERVICE MEMPHIS TN
1200 PM CDT SUN MAY 03 2015

TNZ002-004-019-021-049-052-054-088>092-031800-
WEST TENNESSEE

CITY           SKY/WX    TMP DP  RH WIND       PRES   REMARKS
MEMPHIS INTL   PTSUNNY   78  49  35 S9        30.12F
NWS MEMPHIS      N/A     79 N/A N/A MISG        N/A
JACKSON        MOSUNNY   76  48  37 SW8       30.13S
DYERSBURG      MOSUNNY   79  43  27 S7        30.12F
PARIS          SUNNY     75  48  38 S8        30.13F
LEXINGTON      SUNNY     75  48  38 S7        30.13F
$$

TNZ008-025-027-028-033-062-065-066-031800-
NORTH MIDDLE TENNESSEE

CITY           SKY/WX    TMP DP  RH WIND       PRES   REMARKS
NASHVILLE      MOSUNNY   77  48  35 S8        30.15S
CLARKSVILLE    SUNNY     75  50  41 S12       30.13F
SMYRNA         SUNNY     76  51  41 SW7       30.15F
CROSSVILLE     PTSUNNY   72  43  35 VRB7      30.19F
$$

TNZ061-075-076-078-094-096-097-031800-
SOUTH MIDDLE TENNESSEE

CITY           SKY/WX    TMP DP  RH WIND       PRES   REMARKS
MCMINNVILLE    SUNNY     75  52  43 SW9       30.17S
$$

TNZ017-018-042-046-047-031800-
NORTHEAST TENNESSEE

CITY           SKY/WX    TMP DP  RH WIND       PRES   REMARKS
TRI CITIES     MOSUNNY   75  38  26 N7        30.18F
ELIZABETHTON   SUNNY     73  41  31 VRB6      30.17F
$$

TNZ012-013-036-069-073-074-031800-
CENTRAL EAST TENNESSEE

CITY           SKY/WX    TMP DP  RH WIND       PRES   REMARKS
KNOXVILLE      MOSUNNY   74  42  31 CALM      30.17F
OAK RIDGE      SUNNY     74  49  41 CALM      30.18F
MORRISTOWN     SUNNY     75  45  33 CALM      30.19S
$$

TNZ083-085-099-031800-
SOUTHEAST TENNESSEE

CITY           SKY/WX    TMP DP  RH WIND       PRES   REMARKS
CHATTANOOGA    MOSUNNY   75  48  38 SW3       30.17F
$$

SKY/WX REPORTED AS FAIR MEANS FEW OR NO CLOUDS BELOW
12 THOUSAND FEET.



USA.gov is the U.S. government's official web portal to all federal, state and local government web resources and services.